Dewpoint
37 38 40 41 41 42 42 43 43 42 42 43 44 45 44 44 43 43 46 48 49 50 50 50 50 53 54 55 55 56 56 57 58 58 59 60 60 60 60 60 60 60 61 61 61 60 59 59 58 58 58 59
36 35 37 38 38 39 39 40 40 40 39 40 41 41 41 40 39 41 43 44 46 48 48 48 49 51 53 54 54 54 55 55 57 57 57 58 59 59 58 58 59 59 59 59 60 59 59 58 57 57 58 58
29 33 33 35 35 36 36 37 38 37 36 37 38 38 38 37 36 36 39 41 42 44 45 46 46 48 50 52 53 52 53 54 55 55 56 57 57 57 57 58 57 56 57 58 58 58 57 57 57 57 57 57
24 32 31 32 33 32 33 33 33 34 33 33 34 34 35 34 30 31 30 38 35 40 40 42 43 45 48 50 52 52 51 52 53 54 54 55 56 55 55 55 55 55 56 56 56 56 56 56 56 56 56 56
25 29 29 28 31 30 30 30 30 30 30 29 29 30 31 29 25 24 25 28 31 35 33 39 41 42 44 47 49 50 49 49 51 53 53 53 53 53 52 52 52 53 54 55 55 55 54 55 55 56 56 56
27 26 27 20 21 29 26 28 28 25 24 26 21 29 25 23 23 22 22 27 33 31 32 32 38 39 41 44 46 48 47 47 49 50 51 51 52 50 50 49 48 49 52 52 53 53 53 53 54 54 55 55
26 19 20 21 19 26 28 26 24 20 22 19 19 21 23 25 21 22 22 26 30 32 33 30 35 36 38 41 42 45 43 44 45 47 48 48 49 48 47 45 47 48 49 50 52 52 52 52 52 53 54 54
21 19 19 21 18 19 22 20 21 18 19 18 18 19 22 21 21 20 19 28 29 31 27 26 31 33 33 35 37 41 38 40 41 43 44 45 46 44 44 43 44 45 46 48 49 50 50 51 51 52 52 53
22 19 17 21 20 18 23 20 18 18 17 17 18 17 21 22 20 19 18 20 22 24 25 24 24 24 25 27 30 36 33 33 35 37 37 37 39 40 41 41 42 43 44 45 47 48 49 50 50 51 51 52
24 19 17 20 23 19 23 22 19 18 17 16 17 17 21 21 16 15 17 18 20 22 24 23 23 23 23 25 29 32 32 32 33 34 35 36 37 38 39 39 40 41 43 43 45 46 47 48 48 49 50 51
19 18 20 21 24 21 23 20 19 19 18 18 18 18 20 20 16 14 15 16 19 20 22 22 23 23 22 23 26 30 30 31 32 32 34 35 35 37 38 38 39 40 41 42 43 44 45 45 46 47 48 49
18 20 21 25 25 20 30 22 20 20 21 20 17 21 19 24 17 14 15 15 17 19 20 21 23 22 21 22 25 28 29 29 30 31 32 33 34 35 36 37 38 39 40 40 40 41 41 42 44 45 46 47
19 21 21 23 20 20 29 20 19 21 21 17 20 19 20 26 18 14 15 15 16 19 18 19 21 21 21 20 23 26 27 28 29 30 31 32 32 33 35 36 37 38 38 39 39 39 39 40 40 41 43 45
19 21 20 23 20 20 25 20 20 21 19 19 19 18 19 22 22 16 16 15 16 18 16 17 18 20 20 20 21 25 26 27 28 28 29 30 31 32 34 34 36 37 37 37 37 38 38 38 39 40 42 42
19 21 20 26 21 21 20 21 24 21 19 20 19 21 20 21 23 19 17 16 16 18 16 15 16 17 19 19 20 23 25 26 27 27 28 29 30 31 32 33 35 36 36 36 35 36 36 37 38 38 39 40
19 18 21 25 21 20 22 27 19 18 20 26 19 21 20 21 23 24 18 18 17 20 16 15 15 15 17 18 20 22 24 24 25 25 26 28 29 31 32 32 33 34 35 35 34 34 34 35 36 38 39 39
19 19 21 20 18 21 27 22 20 18 17 18 18 20 21 20 24 23 21 19 19 22 16 15 14 14 16 17 20 21 23 23 24 22 23 25 27 29 30 31 32 33 34 33 33 33 33 34 35 37 38 39
16 18 20 27 18 21 21 21 18 25 18 22 22 21 20 19 24 21 20 20 18 17 16 15 14 14 13 15 20 20 21 21 22 20 21 22 24 26 27 29 30 32 33 33 32 32 32 33 35 36 37 38
16 22 21 19 19 16 20 22 19 18 18 17 18 19 18 21 26 22 20 21 19 17 17 16 14 13 14 16 19 19 19 21 21 20 20 21 23 25 25 27 29 31 32 31 31 31 32 33 34 35 36 37
15 16 17 19 29 19 19 19 18 18 18 18 18 24 18 21 24 22 20 21 20 16 17 17 16 14 16 17 18 18 19 20 20 20 20 19 23 23 23 25 26 29 30 30 30 30 31 32 34 34 35 36
18 17 16 16 19 19 21 17 16 16 18 18 17 18 17 20 23 22 20 22 21 17 17 18 17 16 16 18 17 17 18 17 20 20 20 18 22 23 23 24 24 26 28 29 29 29 30 31 32 32 33 36
14 16 20 19 18 27 21 16 17 17 17 16 17 17 19 19 22 25 21 21 21 18 19 20 17 17 17 18 17 17 17 17 18 19 19 17 19 22 23 23 23 25 26 28 28 29 29 29 30 31 34 36
18 19 18 19 18 17 18 17 18 18 18 18 17 17 17 20 22 25 20 20 22 18 19 19 18 17 17 18 17 17 16 16 18 19 17 16 18 21 22 23 23 24 26 27 27 28 28 27 28 31 34 36
19 17 17 14 14 14 16 17 20 20 18 18 17 19 20 20 20 20 22 19 20 18 20 19 18 17 18 17 17 17 15 15 16 17 17 16 19 20 21 19 22 23 25 26 26 27 25 26 28 30 35 35
14 12 14 16 15 12 12 15 16 20 20 17 16 19 19 19 19 19 19 22 20 18 20 22 18 17 17 17 18 17 17 17 17 19 17 18 18 20 19 17 21 23 24 24 21 22 21 25 28 31 34 33
16 14 13 13 12 12 13 14 14 14 14 15 20 21 19 18 19 19 19 21 20 20 17 16 17 17 16 17 17 19 20 18 21 16 14 16 15 18 19 19 21 22 22 20 21 21 20 24 26 28 31 30
14 14 16 13 13 13 14 15 15 14 16 18 19 17 16 17 20 19 18 18 20 18 17 16 16 16 16 17 19 18 16 16 15 14 13 13 14 16 16 19 21 21 22 15 21 23 21 19 21 22 28 27
14 15 14 16 14 14 13 12 20 21 20 16 14 13 15 17 18 16 16 17 17 19 18 16 16 16 16 16 19 17 15 15 14 14 14 12 14 15 12 13 17 20 18 17 22 15 18 20 23 19 24 24
18 17 19 18 18 19 18 15 15 13 12 12 15 19 17 14 15 16 16 17 17 19 18 16 16 16 16 15 16 18 16 15 14 14 14 14 15 12 12 13 15 17 18 16 22 22 18 17 19 20 23 23
19 19 15 15 15 13 13 12 12 10 9 10 9 9 11 13 15 15 15 15 16 16 17 16 16 14 15 15 16 17 16 15 15 15 14 13 13 12 16 14 13 12 13 17 19 20 20 20 18 19 21 20
19 15 14 13 12 12 12 11 12 10 11 11 12 13 12 11 13 15 14 13 13 13 15 16 16 16 15 16 16 19 16 15 14 15 13 15 15 13 18 15 9 10 13 15 12 16 15 16 19 19 19 16